• In Netherlands
  • List of Countries
  • For 7 days
  • Water Temperature
  • Satellite Maps
  • Weather Map
  • Weather Widgets
  • user-avatar
    Login

    Hourly Weather Blagoevgrad

    Today, 27 May, Sunday

    Time Temperature Precipitation Wind Pressure Humidity
    00:00 +16°C° 0 mm 1 mps 723 mmHg 86%
    01:00 +15°C° 0 mm 1 mps 723 mmHg 86%
    02:00 +15°C° 0 mm 1 mps 723 mmHg 86%
    03:00 +15°C° 0 mm 1 mps 723 mmHg 86%
    04:00 +14°C° 0 mm 1 mps 723 mmHg 86%
    05:00 +14°C° 0 mm 1 mps 723 mmHg 86%
    06:00 +16°C° 0 mm 2 mps 723 mmHg 79%
    07:00 +19°C° 0 mm 2 mps 724 mmHg 72%
    08:00 +21°C° 0 mm 2 mps 724 mmHg 65%
    09:00 +23°C° 0 mm 2 mps 724 mmHg 59%
    10:00 +25°C° 0 mm 3 mps 724 mmHg 53%
    11:00 +26°C° 0 mm 3 mps 724 mmHg 47%
    12:00 +27°C° 0 mm 3 mps 724 mmHg 46%
    13:00 +27°C° 0 mm 3 mps 724 mmHg 45%
    14:00 +28°C° 0 mm 2 mps 723 mmHg 43%
    15:00 +27°C° 0.1 mm 2 mps 723 mmHg 47%
    16:00 +27°C° 0.1 mm 2 mps 723 mmHg 50%
    17:00 +26°C° 0.1 mm 2 mps 723 mmHg 53%
    18:00 +24°C° 0.2 mm 2 mps 723 mmHg 61%
    19:00 +21°C° 0.2 mm 2 mps 723 mmHg 69%
    20:00 +20°C° 0.2 mm 1 mps 723 mmHg 78%
    21:00 +19°C° 0 mm 1 mps 723 mmHg 81%
    22:00 +18°C° 0 mm 1 mps 723 mmHg 85%
    23:00 +18°C° 0 mm 1 mps 723 mmHg 88%

    Tomorrow, 28 May, Monday

    Time Temperature Precipitation Wind Pressure Humidity
    00:00 +16°C° 0 mm 1 mps 723 mmHg 89%
    01:00 +16°C° 0 mm 1 mps 723 mmHg 90%
    02:00 +15°C° 0 mm 1 mps 723 mmHg 91%
    03:00 +15°C° 0 mm 1 mps 723 mmHg 91%
    04:00 +15°C° 0 mm 1 mps 723 mmHg 91%
    05:00 +15°C° 0 mm 1 mps 723 mmHg 91%
    06:00 +18°C° 0 mm 1 mps 723 mmHg 84%
    07:00 +20°C° 0 mm 1 mps 724 mmHg 78%
    08:00 +22°C° 0 mm 1 mps 724 mmHg 71%
    09:00 +23°C° 0 mm 2 mps 724 mmHg 65%
    10:00 +25°C° 0 mm 2 mps 724 mmHg 59%
    11:00 +26°C° 0 mm 2 mps 724 mmHg 53%
    12:00 +26°C° 0.5 mm 2 mps 724 mmHg 52%
    13:00 +27°C° 0.5 mm 2 mps 724 mmHg 52%
    14:00 +27°C° 0.5 mm 2 mps 723 mmHg 51%
    15:00 +27°C° 0.5 mm 2 mps 723 mmHg 53%
    16:00 +26°C° 0.5 mm 3 mps 723 mmHg 55%
    17:00 +26°C° 0.5 mm 3 mps 722 mmHg 57%
    18:00 +24°C° 0.5 mm 2 mps 722 mmHg 64%
    19:00 +21°C° 0.5 mm 2 mps 722 mmHg 72%
    20:00 +19°C° 0.5 mm 2 mps 722 mmHg 79%
    21:00 +19°C° 0.1 mm 1 mps 723 mmHg 82%
    22:00 +18°C° 0.1 mm 1 mps 723 mmHg 86%
    23:00 +16°C° 0.1 mm 1 mps 723 mmHg 89%

    Day after tomorrow, 29 May, Tuesday

    Time Temperature Precipitation Wind Pressure Humidity
    00:00 +15°C° 0 mm 1 mps 723 mmHg 89%
    01:00 +15°C° 0 mm 1 mps 723 mmHg 90%
    02:00 +15°C° 0 mm 1 mps 723 mmHg 90%
    03:00 +14°C° 0 mm 1 mps 723 mmHg 90%
    04:00 +14°C° 0 mm 1 mps 723 mmHg 91%
    05:00 +14°C° 0 mm 1 mps 722 mmHg 91%
    06:00 +16°C° 0 mm 1 mps 723 mmHg 83%
    07:00 +19°C° 0 mm 1 mps 723 mmHg 75%
    08:00 +20°C° 0 mm 2 mps 723 mmHg 67%
    09:00 +21°C° 0 mm 2 mps 723 mmHg 59%
    10:00 +24°C° 0 mm 2 mps 723 mmHg 51%
    11:00 +26°C° 0 mm 2 mps 723 mmHg 43%
    12:00 +26°C° 0 mm 2 mps 723 mmHg 41%
    13:00 +27°C° 0 mm 2 mps 723 mmHg 39%
    14:00 +28°C° 0 mm 2 mps 722 mmHg 37%
    15:00 +27°C° 0 mm 3 mps 722 mmHg 40%
    16:00 +27°C° 0 mm 3 mps 722 mmHg 42%
    17:00 +27°C° 0 mm 3 mps 721 mmHg 44%
    18:00 +24°C° 0 mm 2 mps 721 mmHg 53%
    19:00 +21°C° 0 mm 2 mps 721 mmHg 61%
    20:00 +19°C° 0 mm 2 mps 721 mmHg 70%
    21:00 +18°C° 0 mm 2 mps 721 mmHg 74%
    22:00 +18°C° 0 mm 1 mps 721 mmHg 79%
    23:00 +16°C° 0 mm 1 mps 721 mmHg 83%

    30 May, Wednesday

    Time Temperature Precipitation Wind Pressure Humidity
    00:00 +15°C° 0 mm 1 mps 721 mmHg 83%
    01:00 +15°C° 0 mm 1 mps 721 mmHg 83%
    02:00 +15°C° 0 mm 1 mps 720 mmHg 83%
    03:00 +14°C° 0 mm 1 mps 720 mmHg 83%
    04:00 +14°C° 0 mm 1 mps 720 mmHg 83%
    05:00 +14°C° 0 mm 1 mps 720 mmHg 83%
    06:00 +16°C° 0 mm 1 mps 720 mmHg 76%
    07:00 +20°C° 0 mm 1 mps 721 mmHg 69%
    08:00 +22°C° 0 mm 1 mps 721 mmHg 62%
    09:00 +24°C° 0 mm 1 mps 721 mmHg 56%
    10:00 +25°C° 0 mm 1 mps 721 mmHg 51%
    11:00 +27°C° 0 mm 1 mps 721 mmHg 46%
    12:00 +27°C° 0.1 mm 1 mps 720 mmHg 46%
    13:00 +28°C° 0.1 mm 1 mps 720 mmHg 46%
    14:00 +28°C° 0.1 mm 2 mps 720 mmHg 46%
    15:00 +28°C° 0.2 mm 1 mps 719 mmHg 46%
    16:00 +27°C° 0.2 mm 1 mps 719 mmHg 47%
    17:00 +27°C° 0.2 mm 1 mps 719 mmHg 48%
    18:00 +25°C° 0.1 mm 1 mps 719 mmHg 55%
    19:00 +23°C° 0.1 mm 1 mps 719 mmHg 61%
    20:00 +21°C° 0.1 mm 1 mps 719 mmHg 68%
    21:00 +20°C° 0 mm 1 mps 719 mmHg 72%
    22:00 +19°C° 0 mm 1 mps 719 mmHg 77%
    23:00 +18°C° 0 mm 1 mps 719 mmHg 81%

    31 May, Thursday

    Time Temperature Precipitation Wind Pressure Humidity
    00:00 +18°C° 0 mm 1 mps 719 mmHg 82%
    01:00 +16°C° 0 mm 1 mps 718 mmHg 84%
    02:00 +16°C° 0 mm 1 mps 718 mmHg 85%
    03:00 +16°C° 0 mm 1 mps 718 mmHg 85%
    04:00 +15°C° 0 mm 1 mps 718 mmHg 86%
    05:00 +15°C° 0 mm 1 mps 718 mmHg 86%
    06:00 +19°C° 0 mm 1 mps 718 mmHg 78%
    07:00 +21°C° 0 mm 1 mps 718 mmHg 71%
    08:00 +23°C° 0 mm 1 mps 719 mmHg 63%
    09:00 +25°C° 0 mm 1 mps 719 mmHg 57%
    10:00 +27°C° 0 mm 1 mps 719 mmHg 51%
    11:00 +28°C° 0 mm 1 mps 719 mmHg 46%
    12:00 +29°C° 0.1 mm 2 mps 718 mmHg 44%
    13:00 +29°C° 0.1 mm 2 mps 718 mmHg 43%
    14:00 +30°C° 0.1 mm 2 mps 718 mmHg 41%
    15:00 +29°C° 0.2 mm 2 mps 718 mmHg 45%
    16:00 +29°C° 0.2 mm 2 mps 717 mmHg 48%
    17:00 +28°C° 0.2 mm 2 mps 717 mmHg 52%
    18:00 +26°C° 0.4 mm 1 mps 717 mmHg 58%
    19:00 +24°C° 0.4 mm 1 mps 717 mmHg 65%
    20:00 +22°C° 0.4 mm 1 mps 717 mmHg 72%
    21:00 +21°C° 0.4 mm 1 mps 717 mmHg 75%
    22:00 +20°C° 0.4 mm 1 mps 717 mmHg 78%
    23:00 +20°C° 0.4 mm 1 mps 717 mmHg 81%

    1 June, Friday

    Time Temperature Precipitation Wind Pressure Humidity
    00:00 +19°C° 0 mm 1 mps 717 mmHg 82%
    01:00 +19°C° 0 mm 1 mps 717 mmHg 83%
    02:00 +18°C° 0 mm 1 mps 717 mmHg 84%
    03:00 +18°C° 0 mm 1 mps 717 mmHg 84%
    04:00 +18°C° 0 mm 1 mps 717 mmHg 84%
    05:00 +16°C° 0 mm 1 mps 717 mmHg 84%
    06:00 +20°C° 0 mm 1 mps 717 mmHg 77%
    07:00 +22°C° 0 mm 1 mps 718 mmHg 70%
    08:00 +24°C° 0 mm 1 mps 718 mmHg 63%
    09:00 +25°C° 0.3 mm 2 mps 718 mmHg 60%
    10:00 +26°C° 0.3 mm 2 mps 718 mmHg 57%
    11:00 +27°C° 0.3 mm 3 mps 718 mmHg 53%
    12:00 +28°C° 0.7 mm 3 mps 718 mmHg 54%
    13:00 +28°C° 0.7 mm 3 mps 718 mmHg 55%
    14:00 +28°C° 0.7 mm 4 mps 717 mmHg 56%
    15:00 +27°C° 0.6 mm 3 mps 717 mmHg 59%
    16:00 +27°C° 0.6 mm 3 mps 717 mmHg 61%
    17:00 +26°C° 0.6 mm 3 mps 717 mmHg 63%
    18:00 +25°C° 0.3 mm 3 mps 717 mmHg 69%
    19:00 +23°C° 0.3 mm 2 mps 718 mmHg 74%
    20:00 +20°C° 0.3 mm 2 mps 718 mmHg 80%
    21:00 +19°C° 0 mm 2 mps 718 mmHg 82%
    22:00 +19°C° 0 mm 1 mps 718 mmHg 85%
    23:00 +19°C° 0 mm 1 mps 719 mmHg 87%
    Show more